Regional Weather Roundup
Issued by NWS Charleston, SC

Home | Current Version | Previous Version | Text Only | Print | Product List | Glossary On
Versions: 1 2 3 4 5 6 7 8 9 10 11 12 13 14 15 16 17 18 19 20 21 22 23 24 25 26 27 28 29 30 31 32 33 34 35 36 37 38 39 40 41 42 43 44 45 46 47 48 49 50
000
ASUS42 KCHS 241927
RWRCHS

REGIONAL WEATHER ROUNDUP
NATIONAL WEATHER SERVICE CHARLESTON SC
200 PM EST TUE JAN 24 2017

NOTE: "FAIR" INDICATES FEW OR NO CLOUDS BELOW 12,000 FEET WITH NO
SIGNIFICANT WEATHER AND/OR OBSTRUCTIONS TO VISIBILITY.

NOT ALL STATIONS ARE QUALITY CONTROLLED. USE DATA WITH CAUTION...
ESPECIALLY DEWPOINT OBSERVATIONS.

SCZ027-030-031-034>040-042>050-242000-
...SOUTHEAST SOUTH CAROLINA...

CITY           SKY/WX    TMP DP  RH WIND       PRES   REMARKS
N CHARLESTON   SUNNY     67  42  40 W12       29.70F
WATERFRONT PRK   N/A     65  46  50 NW5       29.70F
MOUNT PLEASANT FAIR      66  45  45 W12       29.70S
JOHNS ISLAND   FAIR      68  45  42 NW10      29.71S
PINOPOLIS        N/A     59  48  67 NW7       29.62F
MONCKS CORNER  FAIR      66  39  37 NW6       29.70S
SUMMERVILLE    FAIR      68  45  42 W10       29.72S
BEAUFORT MCAS  SUNNY     66  44  45 W12       29.75F
BEAUFORT ARPT  FAIR      64  45  48 W7G13     29.74S
HILTON HEAD IS NOT AVBL
WALTERBORO     CLEAR     64  43  45 W10       29.74S
ALLENDALE      FAIR      64  45  48 SW7       29.74S

...SOUTHERN MIDLANDS AND PEE DEE...

CITY           SKY/WX    TMP DP  RH WIND       PRES   REMARKS
GEORGETOWN     FAIR      64  43  45 W12       29.68S
KINGSTREE      FAIR      63  39  42 W12G21    29.69R
ORANGEBURG     NOT AVBL
BARNWELL       FAIR      66  45  45 VRB6G13   29.74F
AIKEN          FAIR      63  43  48 W8        29.77S
MANNING        FAIR      64  39  39 NW7G16    29.70S
COLUMBIA       SUNNY     66  41  40 NW15G22   29.72S
SUMTER         SUNNY     66  40  38 NW14G20   29.68S
FLORENCE       SUNNY     65  41  41 NW15G22   29.67F
MYRTLE BEACH   NOT AVBL
N MYRTLE BEACH SUNNY     64  43  46 NW13G21   29.64F

$$

GAZ063-065-086>088-099>101-113>116-118-119-134>141-150-242000-
...SOUTHEAST GEORGIA...

CITY           SKY/WX    TMP DP  RH WIND       PRES   REMARKS
SAVANNAH ARPT  SUNNY     66  43  43 NW13      29.77F
HUNTER AAF     SUNNY     67  51  57 NW14      29.74F
FORT STEWART   SUNNY     67  45  45 W13       29.75F
STATESBORO     SUNNY     66  47  50 NW8G18    29.77S
SYLVANIA       CLEAR    N/A N/A N/A NW10      29.76F
CLAXTON        FAIR      66  48  51 W10G20    29.78F

...CSRA...CENTRAL AND FAR SOUTHEAST GEORGIA...

CITY           SKY/WX    TMP DP  RH WIND       PRES   REMARKS
THOMSON        SUNNY     66  45  46 W12G17    29.81S
AUGUSTA-BUSH   SUNNY     68  40  35 W7        29.74F
AUGUSTA-DANIEL SUNNY     65  39  38 W5        29.76F
SWAINSBORO     FAIR      64  43  45 NW10G17   29.78F
VIDALIA        SUNNY     68  50  52 W8        29.79F
EASTMAN        FAIR      66  28  24 NW7       29.85S
HAZLEHURST     FAIR      68  44  42 W8        29.80F
ALMA           SUNNY     66  45  46 W8G20     29.81F
WAYCROSS       SUNNY     70  48  44 NW12      29.82S
JESUP          FAIR      68  43  40 W9G17     29.80S
BAXLEY         FAIR      68  48  49 W9        29.80F
BRUNSWICK      SUNNY     70  50  49 W14G20    29.79F
SAINT SIMONS   SUNNY     68  42  38 W12G22    29.78F

$$

SCZ027-028-034-036>038-045-046-048>050-GAZ119-141-242000-
...LAKE AND SUPPLEMENTAL COASTAL OBSERVATIONS...

STATION/POSITION TIME  TEMP    WIND        PRES    WAVE   SWELL
                       AIR SEA DIR/SP/G            HT/PER HT/PER/DIR
                 (UTC) (F)     (DEG/KT/KT) (MB)    (FT/S) (FT/S/D)
WINYAH BAY       1830   63     310/  9     1004.0F
LAKE MURRAY      1830   62     300/  8/ 16 1006.1F
ACE BASIN NERRS  1845   64     270/  4     1007.0S
FORT PULASKI     1900   62 59  300/ 12/ 14 1007.8
SAPELO ISLAND    1900   67     280/ 11     1008.0

$$

ANZ835-935-AMZ111-154-330-350-352-354-370-450-454-472-242000-
...C-MAN AND BUOY OBSERVATIONS...

STATION/POSITION TIME  TEMP    WIND        PRES    WAVE   SWELL
                       AIR SEA DIR/SP/G            HT/PER HT/PER/DIR
                 (UTC) (F)     (DEG/KT/KT) (MB)    (FT/S) (FT/S/D)
BUOY 41004       1850   60 69  280/ 16/ 19 1005.2F   5/ 6   2/130/11
BUOY 41008       1850   60 60  270/  8/ 10 1008.1F   2/ 4   2/190/14
FOLLY BEACH CMAN 1900   66     290/  6/ 10 1006.5F
CAPERS NEARSHORE 1908   61 57  300/  8/ 12 1005.4F
FRIPP NEARSHORE  1908   61 58  270/  8/ 12 1006.8F


STATION/POSITION TIME  TEMP    WIND        PRES    WAVE   SWELL
                       AIR SEA DIR/SP/G            HT/PER HT/PER/DIR
                 (UTC) (F)     (DEG/KT/KT) (MB)    (FT/S) (FT/S/D)
5E ST. MARYS GA  1900      62                N/A     2/13   2/ 90/13
FRYING PAN BUOY  1910   61 69  280/ 19/ 29 1003.6
BUOY 41025       1850   51 74  320/ 27/ 31  999.8F   9/11   5/160/11
CAPE LOOKOUT NC  1900   53     310/ 12/ 15 1001.6R
BUOY 41002       1850   64 71  310/ 27/ 33 1001.5S  16/10  13/300/10
BUOY 41010       NOT AVBL
ST AUGUSTINE FL  1900   69 64  260/ 10/ 13 1010.2F


$$



USA.gov is the U.S. government's official web portal to all federal, state and local government web resources and services.